Location: Warszawa
(52.2500°N, 21.0000°E)
Time: 22:51:56
(UTC+01:00)

A-11 Canister half - Pass Details

Date: 16 February 2023
Orbit: 1526 x 1682 km, 47.3° (Epoch: 22 March)

Event Time Altitude Azimuth Distance (km) Brightness Sun altitude
Exits shadow 05:23:57 17° 263° (W) 3,189 10.0 -13.8°
Maximum altitude 05:31:28 65° 187° (S) 1,660 9.2 -12.6°
Drops below altitude 10° 05:40:41 10° 108° (ESE) 3,728 12.5 -11.2°
Sets 05:43:48 0° 106° (ESE) 4,727 13.6 -10.8°
